Weather History for St. Joseph, MO

Change the Weather History Date:

Sunday, March 24, 2013

  Actual Average Record
Temperature  
Mean Temperature 28 °F 46 °F  
Max Temperature 32 °F 58 °F 86 °F (1967)
Min Temperature 24 °F 35 °F 9 °F (1965)
Degree Days  
Heating Degree Days 37 19  
Month to date heating degree days 699 565  
Since 1 July heating degree days 4803 4873  
Cooling Degree Days 0 0  
Month to date cooling degree days 0 0  
Year to date cooling degree days 0 0  
Moisture  
Dew Point 24 °F    
Average Humidity 78    
Maximum Humidity 92    
Minimum Humidity 63    
Precipitation  
Precipitation T in 0.08 in 3.64 in (1920)
Month to date precipitation 1.28 1.62  
Year to date precipitation 2.29 3.11  
Sea Level Pressure  
Sea Level Pressure 29.98 in    
Wind  
Wind Speed 20 mph (NNW)    
Max Wind Speed 29 mph    
Max Gust Speed 36 mph    
Visibility 3 miles    
Events Fog , Snow    
T = Trace of Precipitation, MM = Missing Value Source: NWS Daily Summary

Daily Weather History Graph

Daily Weather History Graph

Search for Another Location

Airport:

Trip Planner

Search our weather history database for the weather conditions in past years. The results will help you decide how hot, cold, wet, or windy it might be!

Date:

Astronomy

Mar. 24, 2013 Rise Set
Actual Time 7:16 AM CDT 7:36 PM CDT
Civil Twilight 6:49 AM CDT 8:03 PM CDT
Nautical Twilight 6:17 AM CDT 8:34 PM CDT
Astronomical Twilight 5:45 AM CDT 9:07 PM CDT
Moon 5:05 PM CDT (3/24) 5:26 AM CDT (3/24)
Length of Visible Light 13h 13m
Length of Day
12h 19m
Waxing Gibbous, 92% of the Moon is Illuminated
Mar 24
Waxing Gibbous
Mar 27
Full
Apr 2
Last Quarter
Apr 10
New
Apr 18
First Quarter

Hourly Weather History & Observations

Time (CDT) Temp. Windchill Dew Point Humidity Pressure Visibility Wind Dir Wind Speed Gust Speed Precip Events Conditions
12:53 AM 30.9 °F 18.7 °F 27.0 °F 85% 29.97 in 8.0 mi North 19.6 mph - 0.00 in   Overcast
1:48 AM 30.2 °F 17.8 °F 26.6 °F 86% 29.94 in 2.0 mi North 19.6 mph - 0.00 in Snow Light Snow
1:53 AM 30.9 °F 19.1 °F 27.0 °F 85% 29.96 in 1.8 mi North 18.4 mph - 0.00 in Snow Light Snow
2:22 AM 30.2 °F 18.9 °F 28.4 °F 93% 29.94 in 0.8 mi North 16.1 mph - 0.00 in Snow Light Snow
2:31 AM 30.2 °F 18.5 °F 28.4 °F 93% 29.94 in 0.8 mi North 17.3 mph - 0.00 in Snow Light Snow
2:43 AM 30.2 °F 17.8 °F 28.4 °F 93% 29.93 in 0.5 mi North 19.6 mph - 0.00 in Fog , Snow Snow
2:50 AM 30.2 °F 17.8 °F 28.4 °F 93% 29.93 in 0.8 mi North 19.6 mph - 0.00 in Snow Light Snow
2:53 AM 30.0 °F 17.9 °F 28.0 °F 92% 29.95 in 0.8 mi North 18.4 mph - 0.00 in Snow Light Snow
3:03 AM 30.2 °F 18.9 °F 26.6 °F 86% 29.94 in 1.0 mi North 16.1 mph - 0.00 in Snow Light Snow
3:10 AM 30.2 °F 17.8 °F 26.6 °F 86% 29.93 in 1.0 mi North 19.6 mph - 0.00 in Snow Light Snow
3:27 AM 28.4 °F 15.1 °F 26.6 °F 93% 29.93 in 0.8 mi North 20.7 mph - 0.00 in Snow Light Snow
3:53 AM 28.9 °F 15.4 °F 26.1 °F 89% 29.95 in 0.8 mi North 21.9 mph - 0.00 in Snow Light Snow
4:05 AM 28.4 °F 14.7 °F 26.6 °F 93% 29.93 in 1.0 mi North 21.9 mph - 0.00 in Snow Light Snow
4:53 AM 28.9 °F 14.8 °F 26.1 °F 89% 29.95 in 1.0 mi North 24.2 mph - 0.00 in Snow Light Snow
5:33 AM 28.4 °F 14.4 °F 26.6 °F 93% 29.93 in 1.0 mi North 23.0 mph 29.9 mph 0.00 in Snow Light Snow
5:53 AM 28.9 °F 16.9 °F 26.1 °F 89% 29.96 in 1.2 mi North 17.3 mph - 0.00 in Snow Light Snow
6:11 AM 28.4 °F 15.4 °F 26.6 °F 93% 29.94 in 1.5 mi North 19.6 mph 26.5 mph 0.00 in Snow Light Snow
6:53 AM 28.0 °F 14.3 °F 25.0 °F 88% 29.96 in 1.5 mi North 21.9 mph - 0.00 in Snow Light Snow
7:26 AM 28.4 °F 15.4 °F 24.8 °F 86% 29.94 in 1.2 mi North 19.6 mph - 0.00 in Snow Light Snow
7:33 AM 28.4 °F 14.7 °F 24.8 °F 86% 29.95 in 1.2 mi North 21.9 mph - 0.00 in Snow Light Snow
7:53 AM 27.0 °F 13.5 °F 24.1 °F 89% 29.97 in 0.8 mi North 19.6 mph - 0.00 in Snow Light Snow
8:07 AM 26.6 °F 12.4 °F 23.0 °F 86% 29.95 in 0.8 mi North 21.9 mph - 0.00 in Snow Light Snow
8:50 AM 26.6 °F 12.0 °F 23.0 °F 86% 29.96 in 1.0 mi North 23.0 mph 27.6 mph 0.00 in Snow Light Snow
8:53 AM 26.1 °F 12.3 °F 23.0 °F 88% 29.99 in 1.0 mi North 19.6 mph 27.6 mph 0.00 in Snow Light Snow
9:25 AM 26.6 °F 12.7 °F 23.0 °F 86% 29.97 in 0.8 mi NNW 20.7 mph - 0.00 in Snow Light Snow
9:32 AM 26.6 °F 12.0 °F 21.2 °F 80% 29.97 in 1.0 mi North 23.0 mph - 0.00 in Snow Light Snow
9:53 AM 26.1 °F 12.0 °F 21.9 °F 84% 30.00 in 1.5 mi NNW 20.7 mph - 0.00 in Snow Light Snow
10:53 AM 27.0 °F 11.9 °F 21.9 °F 81% 30.00 in 1.0 mi NNW 25.3 mph 31.1 mph 0.00 in Snow Light Snow
11:35 AM 28.4 °F 14.4 °F 23.0 °F 80% 29.97 in 2.0 mi NNW 23.0 mph 28.8 mph 0.00 in Snow Light Snow
11:53 AM 28.0 °F 14.9 °F 23.0 °F 81% 30.00 in 2.5 mi NNW 19.6 mph 31.1 mph 0.00 in Snow Light Snow
12:05 PM 28.4 °F 15.4 °F 21.2 °F 74% 29.98 in 3.0 mi NNW 19.6 mph 32.2 mph 0.00 in Snow Light Snow
12:18 PM 28.4 °F 14.7 °F 23.0 °F 80% 29.98 in 4.0 mi NNW 21.9 mph - 0.00 in Snow Light Snow
12:53 PM 28.9 °F 15.4 °F 23.0 °F 78% 30.00 in 7.0 mi NNW 21.9 mph 28.8 mph 0.00 in   Overcast
1:53 PM 30.9 °F 18.1 °F 21.9 °F 69% 30.00 in 10.0 mi NNW 21.9 mph 31.1 mph N/A   Mostly Cloudy
2:53 PM 30.9 °F 17.8 °F 21.9 °F 69% 29.99 in 10.0 mi NNW 23.0 mph 32.2 mph N/A   Mostly Cloudy
3:53 PM 30.9 °F 18.7 °F 21.9 °F 69% 30.01 in 6.0 mi NW 19.6 mph 31.1 mph N/A   Haze
4:53 PM 30.0 °F 17.5 °F 21.9 °F 72% 30.02 in 6.0 mi NW 19.6 mph 31.1 mph N/A   Haze
5:53 PM 30.0 °F 16.9 °F 21.0 °F 69% 30.03 in 8.0 mi NW 21.9 mph 29.9 mph N/A   Overcast
6:17 PM 28.4 °F 14.1 °F 19.4 °F 69% 30.01 in 8.0 mi NW 24.2 mph 31.1 mph N/A   Overcast
6:53 PM 28.9 °F 15.8 °F 19.9 °F 69% 30.06 in 7.0 mi NW 20.7 mph - N/A   Overcast
7:53 PM 28.0 °F 14.6 °F 19.0 °F 69% 30.07 in 9.0 mi NW 20.7 mph 29.9 mph N/A   Overcast
8:53 PM 28.0 °F 14.9 °F 18.0 °F 66% 30.09 in 7.0 mi NW 19.6 mph - 0.00 in   Overcast
9:53 PM 27.0 °F 14.3 °F 19.0 °F 72% 30.10 in 7.0 mi NW 17.3 mph 25.3 mph N/A   Overcast
10:53 PM 25.0 °F 12.6 °F 18.0 °F 75% 30.10 in 10.0 mi NW 15.0 mph - N/A   Overcast
11:53 PM 25.0 °F 11.3 °F 18.0 °F 75% 30.10 in 9.0 mi NW 18.4 mph - N/A   Overcast